sat.trackr.live / text

‹ back to catalog

STARLINK-4545

NORAD 53421 · 2022-097AK

PAYLOAD ACTIVE UNKNOWN

§ Identity

Operator
Country
US
Launch date
2022-08-10
Launch site
AFETR
Launch vehicle
Mass (kg)
RCS (m²)

Purposes: comms

External: N2YO · Heavens-Above · Gunter

§ Orbital elements

Epoch: 2026-05-25T02:54:34.030944Z

Period
95.44 min
Inclination
53.2142°
Eccentricity
0.0001209
Mean motion
15.08863037 rev/d
Perigee alt
538.8 km
Apogee alt
540.5 km
Semi-major
6,917.8 km
B*
-2.5035e-4
RAAN
131.0028°
Arg perigee
86.5482°
Mean anomaly
273.5649°
Rev number
21,016

§ Raw data

STARLINK-45451 53421U 22097AK  26145.12122721 -.00004273  00000+0 -25035-3 0  99962 53421  53.2142 131.0028 0001209  86.5482 273.5649 15.08863037210161

JSON: /api/v1/satellites/53421 · /tle

For live sub-satellite position, see the globe view (requires WebGL).

§ Visibility from observer

Set your observer location to see the next 7 days of passes ≥ 10°. The values pass through the URL so the page stays shareable.

No JS? Fill the form by hand. The geolocation button needs JavaScript.